Weather History for KLGC - May, 2014

Change the Weather History Date:

Monday, May 26, 2014

  Actual Average (KFFC) Record (KFFC)
Temperature  
Mean Temperature 78 °F 72 °F  
Max Temperature 91 °F 84 °F - ()
Min Temperature 66 °F 60 °F - ()
Degree Days  
Heating Degree Days 0 0  
Month to date heating degree days 31  
Since 1 July heating degree days 2950  
Cooling Degree Days 14 7  
Month to date cooling degree days 115  
Year to date cooling degree days 151  
Growing Degree Days 28 (Base 50)    
Moisture  
Dew Point 69 °F    
Average Humidity 74    
Maximum Humidity 97    
Minimum Humidity 49    
Precipitation  
Precipitation 0.00 in 0.13 in - ()
Month to date precipitation 2.68  
Year to date precipitation 20.81  
Sea Level Pressure  
Sea Level Pressure 30.16 in    
Wind  
Wind Speed 3 mph (SSW)    
Max Wind Speed 10 mph    
Max Gust Speed 20 mph    
Visibility 10 miles    
Events Rain , Thunderstorm    
T = Trace of Precipitation, MM = Missing Value Source: NWS Daily Summary

Daily Weather History Graph

Daily Weather History Graph

Search for Another Location

Airport or City:

Trip Planner

Search our weather history database for the weather conditions in past years. The results will help you decide how hot, cold, wet, or windy it might be!

Date:

Astronomy

May. 26, 2014 Rise Set
Actual Time 6:34 AM EDT 8:40 PM EDT
Civil Twilight 6:06 AM EDT 9:08 PM EDT
Nautical Twilight 5:32 AM EDT 9:42 PM EDT
Astronomical Twilight 4:56 AM EDT 10:19 PM EDT
Moon 5:08 AM EDT (5/26) 6:48 PM EDT (5/26)
Length of Visible Light 15h 01m
Length of Day
14h 05m
Waning Crescent, 5% of the Moon is Illuminated
May 26
Waning Crescent
May 28
New
Jun 5
First Quarter
Jun 13
Full
Jun 19
Last Quarter

Hourly Weather History & Observations

Time (EDT) Temp. Heat Index Dew Point Humidity Pressure Visibility Wind Dir Wind Speed Gust Speed Precip Events Conditions
12:15 AM 70.3 °F - 68.9 °F 95% 30.12 in 7.0 mi Calm Calm - N/A   Clear
12:35 AM 70.2 °F - 67.8 °F 92% 30.13 in 10.0 mi Calm Calm - N/A   Clear
12:55 AM 69.8 °F - 68.0 °F 94% 30.14 in 10.0 mi Calm Calm - N/A   Clear
1:15 AM 74.5 °F - 67.6 °F 79% 30.14 in 10.0 mi East 4.6 mph - N/A   Scattered Clouds
1:35 AM 74.3 °F - 67.5 °F 79% 30.13 in 10.0 mi SE 3.5 mph - N/A   Scattered Clouds
1:55 AM 72.9 °F - 67.5 °F 83% 30.13 in 10.0 mi East 3.5 mph - N/A   Clear
2:15 AM 72.9 °F - 67.5 °F 83% 30.13 in 10.0 mi Calm Calm - N/A   Clear
2:35 AM 72.5 °F - 67.6 °F 85% 30.13 in 10.0 mi SE 4.6 mph - N/A   Clear
2:55 AM 73.2 °F - 67.5 °F 82% 30.14 in 10.0 mi SSE 8.1 mph - N/A   Scattered Clouds
3:15 AM 73.8 °F - 67.1 °F 80% 30.15 in 10.0 mi South 9.2 mph 16.1 mph N/A   Scattered Clouds
3:35 AM 72.7 °F - 66.9 °F 82% 30.15 in 10.0 mi SSE 9.2 mph - N/A   Scattered Clouds
3:55 AM 72.3 °F - 67.1 °F 84% 30.15 in 10.0 mi SSE 10.4 mph - N/A   Clear
4:15 AM 71.6 °F - 67.1 °F 86% 30.15 in 10.0 mi SSE 3.5 mph - N/A   Clear
4:35 AM 70.7 °F - 66.7 °F 87% 30.16 in 10.0 mi SSE 3.5 mph - N/A   Clear
4:55 AM 70.0 °F - 66.9 °F 90% 30.16 in 10.0 mi Calm Calm - N/A   Clear
5:15 AM 68.9 °F - 66.9 °F 93% 30.16 in 10.0 mi Calm Calm - N/A   Clear
5:35 AM 67.5 °F - 65.7 °F 94% 30.16 in 10.0 mi Calm Calm - N/A   Clear
5:55 AM 68.0 °F - 66.2 °F 94% 30.17 in 10.0 mi Calm Calm - N/A   Clear
6:15 AM 68.0 °F - 66.2 °F 94% 30.17 in 10.0 mi Calm Calm - N/A   Clear
6:35 AM 66.7 °F - 65.7 °F 96% 30.18 in 7.0 mi Calm Calm - N/A   Clear
6:55 AM 66.0 °F - 64.6 °F 95% 30.19 in 10.0 mi Calm Calm - N/A   Clear
7:15 AM 66.9 °F - 65.1 °F 94% 30.19 in 10.0 mi Calm Calm - N/A   Clear
7:35 AM 67.6 °F - 66.6 °F 96% 30.20 in 10.0 mi Calm Calm - N/A   Clear
7:55 AM 70.5 °F - 67.1 °F 89% 30.20 in 10.0 mi Calm Calm - N/A   Clear
8:15 AM 72.5 °F - 68.0 °F 86% 30.21 in 10.0 mi Calm Calm - N/A   Clear
8:35 AM 74.5 °F - 68.5 °F 82% 30.21 in 10.0 mi South 3.5 mph - N/A   Clear
8:55 AM 75.4 °F - 68.7 °F 80% 30.21 in 10.0 mi South 4.6 mph - N/A   Clear
9:15 AM 77.7 °F - 69.1 °F 75% 30.21 in 10.0 mi South 4.6 mph - N/A   Clear
9:35 AM 78.8 °F - 69.4 °F 73% 30.22 in 10.0 mi South 8.1 mph - N/A   Clear
9:55 AM 79.7 °F - 69.8 °F 72% 30.22 in 10.0 mi South 8.1 mph - N/A   Clear
10:15 AM 80.8 °F 84.2 °F 70.3 °F 70% 30.22 in 10.0 mi SW 6.9 mph - N/A   Clear
10:35 AM 82.0 °F 86.1 °F 70.7 °F 68% 30.22 in 10.0 mi SW 3.5 mph - N/A   Clear
10:55 AM 82.4 °F 87.2 °F 71.6 °F 70% 30.22 in 10.0 mi SSW 6.9 mph - N/A   Clear
11:15 AM 82.9 °F 87.2 °F 70.5 °F 66% 30.22 in 10.0 mi WSW 6.9 mph - N/A   Clear
11:35 AM 84.4 °F 89.4 °F 70.9 °F 64% 30.22 in 10.0 mi South 5.8 mph - N/A   Clear
11:55 AM 86.0 °F 91.5 °F 71.2 °F 61% 30.22 in 10.0 mi South 4.6 mph - N/A   Clear
12:15 PM 85.5 °F 90.8 °F 71.2 °F 62% 30.22 in 10.0 mi WSW 5.8 mph - N/A   Clear
12:35 PM 86.5 °F 92.1 °F 71.1 °F 60% 30.21 in 10.0 mi SW 6.9 mph - N/A   Clear
12:55 PM 87.6 °F 93.1 °F 70.9 °F 57% 30.21 in 10.0 mi WSW 3.5 mph - N/A   Scattered Clouds
1:15 PM 87.6 °F 93.5 °F 71.2 °F 58% 30.20 in 10.0 mi WSW 4.6 mph - N/A   Scattered Clouds
1:35 PM 87.8 °F 93.0 °F 70.3 °F 56% 30.20 in 10.0 mi NW 3.5 mph - N/A   Scattered Clouds
1:55 PM 87.8 °F 93.8 °F 71.6 °F 58% 30.19 in 10.0 mi WNW 3.5 mph - N/A   Scattered Clouds
2:15 PM 89.6 °F 96.2 °F 71.2 °F 55% 30.18 in 10.0 mi WSW 6.9 mph - N/A   Scattered Clouds
2:35 PM 90.3 °F 96.7 °F 70.9 °F 53% 30.17 in 10.0 mi Calm Calm - N/A   Scattered Clouds
2:55 PM 90.7 °F 97.4 °F 71.4 °F 53% 30.16 in 10.0 mi South 3.5 mph - N/A   Scattered Clouds
3:15 PM 90.7 °F 96.9 °F 70.9 °F 52% 30.15 in 10.0 mi WSW 5.8 mph - N/A   Scattered Clouds
3:35 PM 90.9 °F 97.3 °F 71.1 °F 52% 30.14 in 10.0 mi South 4.6 mph - N/A   Scattered Clouds
3:55 PM 91.6 °F 97.2 °F 69.8 °F 49% 30.14 in 10.0 mi SW 5.8 mph - N/A   Scattered Clouds
4:15 PM 89.2 °F 93.6 °F 68.9 °F 51% 30.12 in 10.0 mi WSW 3.5 mph - N/A   Scattered Clouds
4:35 PM 91.8 °F 97.5 °F 70.3 °F 49% 30.12 in 10.0 mi SSW 5.8 mph - N/A   Mostly Cloudy
4:55 PM 89.2 °F 94.9 °F 70.9 °F 54% 30.11 in 10.0 mi SSW 3.5 mph - N/A   Scattered Clouds
5:15 PM 91.0 °F 97.1 °F 70.3 °F 51% 30.10 in 10.0 mi South 6.9 mph - N/A   Scattered Clouds
5:35 PM 90.3 °F 96.2 °F 70.7 °F 52% 30.10 in 10.0 mi SSW 5.8 mph - N/A   Scattered Clouds
5:55 PM 90.7 °F 96.4 °F 70.5 °F 51% 30.10 in 10.0 mi South 3.5 mph - N/A   Scattered Clouds
6:15 PM 90.9 °F 96.7 °F 70.5 °F 51% 30.10 in 10.0 mi WSW 3.5 mph - N/A   Mostly Cloudy
6:35 PM 89.6 °F 94.7 °F 70.0 °F 52% 30.10 in 10.0 mi West 5.8 mph - N/A   Scattered Clouds
6:55 PM 88.9 °F 95.1 °F 71.6 °F 56% 30.10 in 10.0 mi SSW 4.6 mph - N/A   Scattered Clouds
7:15 PM 87.8 °F 93.8 °F 71.6 °F 58% 30.11 in 10.0 mi SSW 3.5 mph - N/A   Scattered Clouds
7:35 PM 86.5 °F 92.9 °F 72.3 °F 62% 30.12 in 10.0 mi Calm Calm - N/A   Scattered Clouds
7:55 PM 86.0 °F 91.8 °F 71.6 °F 62% 30.12 in 10.0 mi SW 3.5 mph - N/A   Mostly Cloudy
8:15 PM 85.3 °F 91.1 °F 72.0 °F 64% 30.12 in 10.0 mi WNW 3.5 mph - N/A Thunderstorm Scattered Clouds
8:35 PM 83.5 °F 89.7 °F 73.2 °F 71% 30.12 in 10.0 mi WSW 3.5 mph - N/A   Scattered Clouds
8:55 PM 82.2 °F 87.3 °F 72.3 °F 72% 30.13 in 10.0 mi Calm Calm - N/A   Scattered Clouds
9:15 PM 80.1 °F 84.4 °F 73.2 °F 80% 30.12 in 10.0 mi Calm Calm - N/A Thunderstorm Scattered Clouds
9:35 PM 79.9 °F - 72.7 °F 79% 30.14 in 10.0 mi East 3.5 mph - N/A   Mostly Cloudy
9:55 PM 80.4 °F 84.1 °F 71.2 °F 73% 30.14 in 10.0 mi SE 8.1 mph - N/A Thunderstorm Thunderstorm
10:15 PM 73.9 °F - 69.8 °F 87% 30.21 in 4.0 mi South 3.5 mph 19.6 mph N/A Rain , Thunderstorm Heavy Thunderstorms and Rain
10:35 PM 72.0 °F - 70.5 °F 95% 30.18 in 7.0 mi East 5.8 mph - N/A Rain , Thunderstorm Light Thunderstorms and Rain
10:55 PM 72.0 °F - 70.5 °F 95% 30.19 in 10.0 mi Calm Calm - N/A   Mostly Cloudy
11:15 PM 72.1 °F - 71.1 °F 96% 30.19 in 10.0 mi Calm Calm - N/A   Mostly Cloudy
11:35 PM 72.0 °F - 70.9 °F 96% 30.19 in 10.0 mi Calm Calm - N/A Thunderstorm Mostly Cloudy
11:55 PM 71.6 °F - 70.7 °F 97% 30.18 in 7.0 mi Calm Calm - N/A   Scattered Clouds